Regional Weather Roundup
Issued by NWS Charleston, WV

Home | Current Version | Previous Version | Text Only | Print | Product List | Glossary Off
Versions: 1 2 3 4 5 6 7 8 9 10 11 12 13 14 15 16 17 18 19 20 21 22 23 24 25 26 27 28 29 30 31 32 33 34 35 36 37 38 39 40 41 42 43 44 45 46 47 48 49 50

000
ASUS41 KRLX 270710
RWRRLX
West Virginia Regional Weather Roundup
National Weather Service Charleston WV
300 AM EDT FRI MAR 27 2015

Note: "fair" indicates few or no clouds below 12,000 feet with no
significant weather and/or obstructions to visibility.

WVZ003-270800-
Northern Panhandle of West Virginia

CITY           SKY/WX    TMP DP  RH WIND       PRES   REMARKS
WHEELING       CLOUDY    36  32  85 W5        29.87S
$$

WVZ009-270800-
Northwest West Virginia

CITY           SKY/WX    TMP DP  RH WIND       PRES   REMARKS
PARKERSBURG    CLOUDY    38  34  85 W7        29.93F
$$

WVZ006-270800-
Western West Virginia

CITY           SKY/WX    TMP DP  RH WIND       PRES   REMARKS
HUNTINGTON     CLOUDY    40  34  79 NW8       29.92F
$$

WVZ015-270800-
West Central West Virginia

CITY           SKY/WX    TMP DP  RH WIND       PRES   REMARKS
CHARLESTON     CLOUDY    40  36  86 NW7       29.90F
$$

WVZ022-031-270800-
North Central West Virginia

CITY           SKY/WX    TMP DP  RH WIND       PRES   REMARKS
CLARKSBURG     CLOUDY    40  37  89 NW13G20   29.86S
MORGANTOWN     CLOUDY    39  30  70 NW3       29.88R
$$

WVZ025-035-042-045-270800-
Southern West Virginia

CITY           SKY/WX    TMP DP  RH WIND       PRES   REMARKS
BECKLEY        LGT RAIN  37  35  92 NW8       29.83F
LOGAN          LGT RAIN  37  36  93 N6        29.85F
BLUEFIELD      FLURRIES  37  33  85 W7        29.84F
LEWISBURG      LGT RAIN  38  35  91 CALM      29.82F
$$

WVZ047-270800-
Northern Mountains of West Virginia

CITY           SKY/WX    TMP DP  RH WIND       PRES   REMARKS
ELKINS         LGT RAIN  39  35  86 CALM      29.83S
$$

WVZ052-270800-
Eastern Panhandle of West Virginia

CITY           SKY/WX    TMP DP  RH WIND       PRES   REMARKS
MARTINSBURG    LGT RAIN  45  38  76 NW7       29.80F
PETERSBURG     LGT RAIN  44  37  77 CALM      29.81F
$$



USA.gov is the U.S. government's official web portal to all federal, state and local government web resources and services.